EST,Max TemperatureF,Mean TemperatureF,Min TemperatureF,Max Dew PointF,MeanDew PointF,Min DewpointF,Max Humidity, Mean Humidity, Min Humidity, Max Sea Level PressureIn, Mean Sea Level PressureIn, Min Sea Level PressureIn, Max VisibilityMiles, Mean VisibilityMiles, Min VisibilityMiles, Max Wind SpeedMPH, Mean Wind SpeedMPH, Max Gust SpeedMPH,PrecipitationIn, CloudCover, Events, WindDirDegrees
2013-12-1,32,30,29,30,29,27,97,92,86,30.10,30.06,30.00,10,8,3,7,4,,0.00,8,,5
2013-12-2,32,27,22,28,24,19,96,83,66,30.00,29.93,29.88,10,10,5,12,4,,0.00,7,Snow,67
2013-12-3,24,22,20,23,19,16,93,88,85,29.98,29.93,29.91,10,8,1,10,7,16,0.06,7,Snow,45
2013-12-4,42,32,23,42,28,22,99,94,89,29.93,29.75,29.32,10,5,0,23,11,32,0.68,8,Rain-Snow,76
2013-12-5,41,26,11,42,18,2,100,70,53,30.07,29.68,29.32,10,9,0,16,11,31,0.00,4,Fog-Snow,246
2013-12-6,21,13,5,5,2,-1,76,65,50,30.34,30.21,30.06,10,10,10,15,9,22,0.00,0,Snow,269
2013-12-7,15,9,3,0,-2,-6,77,63,48,30.51,30.45,30.34,10,10,10,17,11,23,0.00,0,,272
2013-12-8,24,10,-3,22,2,-8,91,77,57,30.51,30.35,30.02,10,7,1,14,5,23,0.00,5,Snow,346
2013-12-9,25,12,0,24,11,-9,94,79,60,30.00,29.82,29.72,10,7,1,14,9,24,0.09,6,Snow,270
2013-12-10,12,4,-4,2,-4,-11,80,71,60,30.02,29.88,29.74,10,9,2,13,7,22,0.00,3,Snow,271
2013-12-11,10,4,-2,-4,-7,-10,74,63,50,30.32,30.20,30.03,10,10,10,17,12,24,0.00,0,,272
2013-12-12,13,4,-5,2,-5,-13,72,64,53,30.29,30.13,30.01,10,10,10,14,8,20,0.00,4,,258
2013-12-13,12,6,0,7,1,-5,85,75,57,30.38,30.23,30.03,10,8,1,14,6,21,0.00,5,Snow,341
2013-12-14,12,6,0,8,1,-8,84,77,59,30.38,30.19,29.88,10,8,2,10,7,16,0.00,5,Snow,53
2013-12-15,20,12,5,14,8,3,91,83,68,29.98,29.78,29.69,10,6,0,20,9,28,0.02,7,Snow,327
2013-12-16,21,6,-9,18,5,-14,91,83,63,30.10,30.01,29.86,10,7,0,14,4,23,0.00,5,Snow,200
2013-12-17,22,14,7,20,11,3,92,85,75,29.88,29.81,29.75,10,7,1,15,4,21,0.00,6,Snow,264
2013-12-18,31,22,13,27,13,7,89,76,65,29.98,29.86,29.67,10,10,1,16,10,24,0.00,6,Snow,246
2013-12-19,26,19,12,21,15,9,87,81,74,30.08,29.92,29.67,10,10,10,17,7,24,0.00,6,Snow,318
2013-12-20,20,18,15,16,14,12,88,84,78,30.03,29.95,29.84,10,8,2,13,8,20,0.00,7,Snow,23
2013-12-21,24,20,15,18,16,14,92,85,74,30.01,29.92,29.83,10,10,7,10,4,,0.00,3,Snow,22
2013-12-22,20,17,14,15,13,10,89,80,67,30.06,29.94,29.85,10,7,0,15,10,21,0.00,6,Snow,25
2013-12-23,16,8,-1,10,5,-5,89,82,71,30.33,30.22,30.06,10,8,3,14,4,17,0.00,7,Snow,357
2013-12-24,12,4,-3,8,1,-8,89,83,71,30.45,30.40,30.33,10,8,2,7,2,,0.00,5,Snow,97
2013-12-25,18,14,11,15,10,7,89,82,75,30.13,30.03,29.98,10,7,1,12,7,21,0.01,6,Snow,249
2013-12-26,20,10,-1,10,6,-6,89,76,58,30.18,30.07,29.96,10,10,10,13,7,,0.00,2,,282
2013-12-27,34,12,-10,32,11,-14,90,85,80,30.19,30.04,29.82,10,10,5,20,6,25,0.00,4,,243
2013-12-28,35,32,30,32,29,26,96,89,81,29.94,29.85,29.72,10,9,5,12,3,17,0.00,7,,226
2013-12-29,32,17,1,32,11,-3,99,80,64,30.06,29.88,29.70,10,6,1,24,14,32,0.00,8,Snow,331
2013-12-30,10,2,-5,-3,-7,-11,80,67,53,30.20,30.11,30.03,10,10,4,14,9,,0.00,3,,280
2013-12-31,8,2,-4,-2,-9,-12,81,65,47,30.29,30.10,29.99,10,10,3,18,11,23,0.00,1,,281